MUOS-2 1 39206U 13036A 21061.86184237 .00000057 00000-0 00000-0 0 9994 2 39206 2.5428 5.8731 0051508 181.9988 106.1959 1.00270187 27815 ATLAS 5 CENTAUR R/B 1 39207U 13036B 21061.20362027 -.00000152 00000-0 00000-0 0 9995 2 39207 17.6162 159.9347 6129582 60.4308 346.5545 2.09943626 58442